Regional Weather Roundup
Issued by NWS Little Rock, AR

Home | Current Version | Previous Version | Text Only | Print | Product List | Glossary Off
Versions: 1 2 3 4 5 6 7 8 9 10 11 12 13 14 15 16 17 18 19 20 21 22 23 24 25 26 27 28 29 30 31 32 33 34 35 36 37 38 39 40 41 42 43 44 45 46 47 48 49 50

000
ASUS44 KLZK 260305
RWRLZK

WEATHER ROUNDUP FOR ARKANSAS
NATIONAL WEATHER SERVICE LITTLE ROCK AR
1000 PM CDT FRI JUL 25 2014

NOTE: "FAIR" INDICATES FEW OR NO CLOUDS BELOW 12,000 FEET WITH NO
SIGNIFICANT WEATHER AND/OR OBSTRUCTIONS TO VISIBILITY.

ARZ001-003-010-029-260400-
NORTHWEST ARKANSAS

CITY           SKY/WX    TMP DP  RH WIND       PRES   REMARKS
FAYETTEVILLE   CLEAR     78  71  79 S5        29.96S
FORT SMITH     CLEAR     82  73  74 S6        29.94R HX  87
HARRISON       CLEAR     77  72  84 S9        29.96S
BENTONVILLE    CLEAR     79  68  69 S6        29.97R
ROGERS         CLEAR     79  70  74 S9        29.97R
SILOAM SPGS    CLEAR     75  66  73 SW3       29.97R
HIGHFILL       CLEAR     77  71  82 S3        29.96R
$$

ARZ004-005-016-260400-
NORTH CENTRAL ARKANSAS

CITY           SKY/WX    TMP DP  RH WIND       PRES   REMARKS
BATESVILLE     CLEAR     77  70  78 SE7       29.96R
FLIPPIN        CLEAR     79  72  78 CALM      29.95R
MTN HOME       CLEAR     75  71  87 S3        29.95R
$$

ARZ040-041-260400-
WEST CENTRAL ARKANSAS

CITY           SKY/WX    TMP DP  RH WIND       PRES   REMARKS
MENA           CLEAR     75  73  94 CALM      30.00S
MOUNT IDA      CLEAR     74  72  93 CALM      29.96S FOG
$$

ARZ009-017-025-026-028-260400-
NORTHEAST ARKANSAS

CITY           SKY/WX    TMP DP  RH WIND       PRES   REMARKS
JONESBORO      PTCLDY    74  66  76 S3        29.96R
NEWPORT        PTCLDY    74  71  90 S6        29.97S
WALNUT RIDGE   PTCLDY    75  46  35 S7        29.95S
BLYTHEVILLE    PTCLDY    73  66  78 SW5       29.97R
$$

ARZ022-023-033-042-044-260400-
CENTRAL ARKANSAS

CITY           SKY/WX    TMP DP  RH WIND       PRES   REMARKS
LITTLE ROCK    CLEAR     78  72  81 S5        29.96F
N LITTLE ROCK  CLEAR     78  73  87 SW2       29.96F
JACKSONVILLE   CLEAR     78  73  85 S5        29.96S
SEARCY         CLEAR     75  72  91 CALM      29.98R
HOT SPRINGS    CLEAR     79  73  82 CALM      29.98R
RUSSELLVILLE   CLEAR     76  73  91 CALM      29.95S
CLINTON        FAIR      75  73  94 CALM      29.96R
$$

ARZ036-260400-
EAST ARKANSAS

CITY           SKY/WX    TMP DP  RH WIND       PRES   REMARKS
WEST MEMPHIS   PTCLDY    74  67  78 S5        29.96S
$$

ARZ050-053-066-070-073-260400-
SOUTHWEST ARKANSAS

CITY           SKY/WX    TMP DP  RH WIND       PRES   REMARKS
ARKADELPHIA    FAIR      78  77  97 CALM      29.97R FOG
CAMDEN         CLEAR     75  73  94 CALM      29.97R FOG
TEXARKANA      CLEAR     82  75  79 S6        29.97R HX  89
EL DORADO      CLEAR     77  75  93 CALM      29.99R
DE QUEEN       CLEAR     77  76  96 CALM      29.94S FOG
$$

ARZ056-057-069-260400-
SOUTHEAST ARKANSAS

CITY           SKY/WX    TMP DP  RH WIND       PRES   REMARKS
PINE BLUFF     CLEAR     76  71  85 S6        29.97S
STUTTGART      CLEAR     79  70  73 S7        29.97S
MONTICELLO     CLEAR     78  73  84 CALM      29.98R

$$




USA.gov is the U.S. government's official web portal to all federal, state and local government web resources and services.